Retour au catalogue

APRIZESAT 1

ActifCommunicationsSSO
NORAD 28372·PAYLOAD·🇺🇸 United States

Lancé Jun 29, 2004 depuis Baikonur Cosmodrome

Loading…

Prochains Passages (prochaines 24 heures)

TLE

FraisSource: Space-Track

Époque: Sep 14, 2026, 06:29 UTC

1 28372U 04025G   26257.27046936  .00000122  00000-0  42345-4 0  9999
2 28372  98.6321 270.4313 0043468 243.7183 115.9542 14.51817550174833

Suivez APRIZESAT 1 en temps réel avec AllMySat

Download on the App Store